Showing default

LEMUR-2 EMARCHIA, 68492

Orbit data source: Space-Track

LEMUR-2 EMARCHIA, 68492 is a payload satellite owned by Spire (DE) in SSO that was launched on Mon, 30 Mar 2026 UTC via an FALCON 9 launch vehicle from the Air Force Western Test Range (AFWTR). Payload-class satellites include a variety of spacecraft equipped with specific instruments for various scientific and technological missions. These include communications satellites like Starlink; space stations such as the ISS; scientific satellites like the Hubble; Earth observation satellites from companies like Planet Labs, Umbra, and HawkEye 360; GPS; miniature CubeSats for education and research; and military/defense satellites.

Loading next visibility...
Identifier
68492, 2026-067CE
Orbit
SSO
Country
Flag of DEDE / GER
Related business
Manufacturer
Spire/Glasgow
Mission
Operational Commercial Com/MetRO
Bus & Motor
CUBESAT 3U, Unknown motor
Mass
7.6 kg wet, 7.6 kg dry
Launch date (UTC)
2026-03-30 (5 months ago)
Launch vehicle
FALCON 9
Launch site
Air Force Western Test Range (AFWTR)
Object type
Payload
Rocket body
Debris
Shape & HBR
Box + 2 Pan, 0.5 m
Radar Cross Section
0.063 m², Medium (>0.1 m² and < 1m²)

Expand to show TLE details & history
Last TLE update: 12 hours ago

TLE from 12 hours ago
0 LEMUR-2 EMARCHIA
1 68492U 26067CE  26254.44739213  .00003626  00000-0  35915-3 0  9995
2 68492  97.7644 211.3198 0004908 111.8114 248.3628 14.92437581 24587
Epoch: 2026-09-11T10:44Z
TLE epoch observation values (Epoch: 2026-09-11T10:44:14.680Z)
Latitude
0.00004°
Longitude
59.78801°
Altitude
594.643 km
Speed
7.562 km/s
True Right ascension
14h 05m 16s
True Declination
0° 00' 00"
Sunlit
Object was in daylight at epoch
Visualization orbit readout
Latitude
Unknown
Longitude
Unknown
Altitude
Unknown
Speed
Unknown
Apparent Right ascension
Unknown
Apparent Declination
Unknown
Sunlit
N/A
Visualization observer readout
Local Sidereal Time
15:02:26
Azimuth
Unknown
Elevation
Unknown
Doppler factor
Unknown
Orbital elements
Apogee altitude
590.775 km
Perigee altitude
583.937 km
Semi-major axis
6,965.493 km
Eccentricity
0.00049
Inclination
97.7644°
RAAN
211.3198°
Arg. of periapsis
111.8114°
True anomaly
248.31053°
Mean anomaly
248.3628°
Eccentric anomaly
248.33667°
Mean motion
3.73349 °/min
Orbital period
96.42 mins
BSTAR
0.00035915
Loading maneuver chart data...
Computing Atmospheric mass density...
Loading historical data...
Loading historical data...
Loading historical data...
Loading historical data...
Loading historical data...
Loading historical data...
Loading historical data...

Documentation

Showing up to 5 results
|